Weather History for Franklin, NC

Change the Weather History Date:

Wednesday, October 2, 2013

  Actual Average (KTOC) Record (KTOC)
Temperature  
Mean Temperature 64 °F -  
Max Temperature 76 °F 77 °F - (-1)
Min Temperature 52 °F 53 °F - (-1)
Degree Days  
Heating Degree Days 1    
Growing Degree Days 14 (Base 50)    
Moisture  
Dew Point 55 °F    
Average Humidity 86    
Maximum Humidity 99    
Minimum Humidity 46    
Precipitation  
Precipitation 0.00 in - - ()
Sea Level Pressure  
Sea Level Pressure 30.21 in    
Wind  
Wind Speed 0 mph (WSW)    
Max Wind Speed 5 mph    
Max Gust Speed -    
Visibility 6 miles    
Events Fog    
Averages and records for this station are not official NWS values.
T = Trace of Precipitation, MM = Missing Value Source: NWS Daily Summary

Daily Weather History Graph

Daily Weather History Graph

Search for Another Location

Airport:

Trip Planner

Search our weather history database for the weather conditions in past years. The results will help you decide how hot, cold, wet, or windy it might be!

Date:

Astronomy

Oct. 02, 2013 Rise Set
Actual Time 7:29 AM EDT 7:15 PM EDT
Civil Twilight 7:04 AM EDT 7:41 PM EDT
Nautical Twilight 6:34 AM EDT 8:10 PM EDT
Astronomical Twilight 6:05 AM EDT 8:39 PM EDT
Moon 5:05 AM EDT (10/2) 5:48 PM EDT (10/2)
Length of Visible Light 12h 36m
Length of Day
11h 46m
Waning Crescent, 6% of the Moon is Illuminated
Oct 2
Waning Crescent
Oct 4
New
Oct 11
First Quarter
Oct 18
Full
Oct 26
Last Quarter

Hourly Weather History & Observations

Time (EDT) Temp. Dew Point Humidity Pressure Visibility Wind Dir Wind Speed Gust Speed Precip Events Conditions
12:15 AM 53.4 °F 52.9 °F 98% 30.22 in 3.0 mi Calm Calm - N/A   Clear
12:35 AM 52.7 °F 52.2 °F 98% 30.22 in 1.8 mi Calm Calm - N/A   Scattered Clouds
12:55 AM 52.7 °F 52.2 °F 98% 30.22 in 10.0 mi Calm Calm - N/A   Mostly Cloudy
1:15 AM 53.2 °F 52.7 °F 98% 30.22 in 1.5 mi Calm Calm - N/A   Overcast
1:35 AM 53.2 °F 52.7 °F 98% 30.22 in 0.5 mi Calm Calm - N/A Fog Fog
1:55 AM 53.6 °F 52.9 °F 97% 30.22 in 0.2 mi Calm Calm - N/A Fog Fog
2:15 AM 53.6 °F 52.9 °F 97% 30.22 in 0.2 mi Calm Calm - N/A Fog Fog
2:35 AM 53.6 °F 52.9 °F 97% 30.22 in 0.2 mi Calm Calm - N/A Fog Fog
2:55 AM 53.6 °F 52.9 °F 97% 30.22 in 0.2 mi Calm Calm - N/A Fog Fog
3:15 AM 53.6 °F 52.9 °F 97% 30.21 in 0.5 mi Calm Calm - N/A Fog Fog
3:35 AM 53.6 °F 52.7 °F 97% 30.21 in 7.0 mi Calm Calm - N/A   Overcast
3:55 AM 53.4 °F 52.7 °F 97% 30.21 in 1.5 mi Calm Calm - N/A   Overcast
4:15 AM 53.6 °F 52.7 °F 97% 30.21 in 2.0 mi Calm Calm - N/A   Overcast
4:35 AM 53.8 °F 53.1 °F 97% 30.21 in 0.5 mi Calm Calm - N/A Fog Fog
4:55 AM 53.8 °F 53.1 °F 97% 30.21 in 0.5 mi Calm Calm - N/A Fog Fog
5:15 AM 54.0 °F 53.2 °F 97% 30.21 in 0.5 mi Calm Calm - N/A Fog Fog
5:35 AM 54.1 °F 53.2 °F 97% 30.22 in 1.5 mi Calm Calm - N/A   Overcast
5:55 AM 54.3 °F 53.4 °F 97% 30.22 in 2.5 mi Calm Calm - N/A   Overcast
6:15 AM 54.5 °F 53.6 °F 97% 30.23 in 2.5 mi Calm Calm - N/A   Overcast
6:35 AM 54.5 °F 53.6 °F 97% 30.23 in 1.5 mi Calm Calm - N/A   Overcast
6:55 AM 54.1 °F 53.2 °F 97% 30.23 in 1.5 mi Calm Calm - N/A   Overcast
7:15 AM 54.1 °F 53.2 °F 97% 30.24 in 0.8 mi Calm Calm - N/A   Overcast
7:35 AM 54.5 °F 53.6 °F 97% 30.25 in 1.2 mi Calm Calm - N/A   Overcast
7:55 AM 54.0 °F 53.1 °F 97% 30.25 in 1.8 mi Calm Calm - N/A   Overcast
8:15 AM 54.1 °F 53.2 °F 97% 30.25 in 1.0 mi Calm Calm - N/A   Overcast
8:35 AM 54.1 °F 53.2 °F 97% 30.26 in 1.5 mi West 3.5 mph - N/A   Overcast
8:55 AM 54.3 °F 53.4 °F 97% 30.26 in 2.5 mi Calm Calm - N/A   Overcast
9:15 AM 54.5 °F 53.6 °F 97% 30.27 in 3.0 mi Calm Calm - N/A   Overcast
9:35 AM 54.5 °F 53.6 °F 97% 30.27 in 4.0 mi Calm Calm - N/A   Overcast
9:55 AM 54.7 °F 53.8 °F 97% 30.27 in 7.0 mi Calm Calm - N/A   Overcast
10:15 AM 54.9 °F 54.0 °F 97% 30.27 in 7.0 mi Calm Calm - N/A   Overcast
10:35 AM 55.2 °F 54.3 °F 97% 30.27 in 10.0 mi Calm Calm - N/A   Overcast
10:55 AM 55.4 °F 54.5 °F 97% 30.27 in 10.0 mi Calm Calm - N/A   Overcast
11:15 AM 55.6 °F 54.7 °F 97% 30.26 in 10.0 mi Calm Calm - N/A   Overcast
11:35 AM 56.3 °F 55.4 °F 97% 30.26 in 10.0 mi Calm Calm - N/A   Overcast
11:55 AM 59.7 °F 58.1 °F 94% 30.25 in 10.0 mi Calm Calm - N/A   Mostly Cloudy
12:15 PM 61.0 °F 57.9 °F 90% 30.25 in 7.0 mi Calm Calm - N/A   Scattered Clouds
12:35 PM 63.1 °F 57.4 °F 81% 30.24 in 10.0 mi Calm Calm - N/A   Clear
12:55 PM 65.7 °F 56.8 °F 73% 30.23 in 10.0 mi Calm Calm - N/A   Clear
1:15 PM 69.1 °F 57.2 °F 66% 30.21 in 10.0 mi Calm Calm - N/A   Clear
1:35 PM 71.1 °F 52.2 °F 51% 30.20 in 10.0 mi Calm Calm - N/A   Clear
1:55 PM 72.5 °F 53.1 °F 50% 30.20 in 10.0 mi Calm Calm - N/A   Clear
2:15 PM 73.6 °F 53.2 °F 49% 30.18 in 10.0 mi Calm Calm - N/A   Clear
2:35 PM 73.4 °F 52.3 °F 48% 30.18 in 10.0 mi Calm Calm - N/A   Clear
2:55 PM 74.3 °F 54.1 °F 49% 30.17 in 10.0 mi SW 3.5 mph - N/A   Clear
3:15 PM 75.9 °F 54.9 °F 48% 30.16 in 10.0 mi WSW 3.5 mph - N/A   Clear
3:35 PM 74.5 °F 53.4 °F 48% 30.16 in 10.0 mi Calm Calm - N/A   Clear
3:55 PM 74.8 °F 54.7 °F 49% 30.16 in 10.0 mi Calm Calm - N/A   Clear
4:15 PM 75.4 °F 55.8 °F 50% 30.16 in 10.0 mi SW 4.6 mph - N/A   Clear
4:35 PM 76.5 °F 54.5 °F 46% 30.15 in 10.0 mi Calm Calm - N/A   Clear
4:55 PM 76.1 °F 55.4 °F 49% 30.15 in 10.0 mi Calm Calm - N/A   Clear
5:15 PM 74.8 °F 56.7 °F 53% 30.15 in 10.0 mi Calm Calm - N/A   Clear
5:35 PM 73.9 °F 59.9 °F 61% 30.15 in 10.0 mi Calm Calm - N/A   Clear
5:55 PM 73.8 °F 61.0 °F 64% 30.15 in 10.0 mi SW 3.5 mph - N/A   Clear
6:15 PM 73.2 °F 61.5 °F 67% 30.15 in 10.0 mi Calm Calm - N/A   Clear
6:35 PM 70.2 °F 62.4 °F 76% 30.16 in 10.0 mi Calm Calm - N/A   Clear
6:55 PM 68.0 °F 61.7 °F 80% 30.16 in 10.0 mi Calm Calm - N/A   Scattered Clouds
7:15 PM 65.5 °F 61.7 °F 88% 30.16 in 10.0 mi Calm Calm - N/A   Clear
7:35 PM 63.7 °F 60.8 °F 90% 30.17 in 10.0 mi Calm Calm - N/A   Clear
7:55 PM 62.1 °F 60.1 °F 93% 30.17 in 10.0 mi Calm Calm - N/A   Clear
8:15 PM 60.8 °F 59.5 °F 96% 30.18 in 10.0 mi Calm Calm - N/A   Mostly Cloudy
8:35 PM 60.6 °F 59.9 °F 97% 30.18 in 7.0 mi Calm Calm - N/A   Scattered Clouds
8:55 PM 59.4 °F 58.8 °F 98% 30.18 in 7.0 mi Calm Calm - N/A   Clear
9:15 PM 58.5 °F 58.1 °F 99% 30.19 in 7.0 mi Calm Calm - N/A   Clear
9:35 PM 57.9 °F 57.4 °F 98% 30.20 in 7.0 mi Calm Calm - N/A   Clear
9:55 PM 57.2 °F 56.7 °F 98% 30.20 in 5.0 mi Calm Calm - N/A   Clear
10:15 PM 57.6 °F 57.2 °F 99% 30.21 in 5.0 mi Calm Calm - N/A   Clear
10:35 PM 57.2 °F 56.5 °F 97% 30.22 in 5.0 mi Calm Calm - N/A   Scattered Clouds
10:55 PM 56.7 °F 56.3 °F 99% 30.22 in 5.0 mi Calm Calm - N/A   Scattered Clouds
11:15 PM 55.9 °F 55.4 °F 98% 30.22 in 4.0 mi Calm Calm - N/A   Clear
11:35 PM 55.6 °F 55.2 °F 99% 30.23 in 7.0 mi Calm Calm - N/A   Scattered Clouds
11:55 PM 56.3 °F 55.6 °F 97% 30.22 in 7.0 mi Calm Calm - N/A   Mostly Cloudy